• In Uzbekistan
  • List of Countries
  • For 7 days
  • Water Temperature
  • Satellite Maps
  • Weather Map
  • Weather Widgets
  • user-avatar
    Login

    Hourly Weather Gweru

    Today, 19 November, Sunday

    Time Temperature Precipitation Wind Pressure Humidity
    00:00 +19°C° 0.1 mm 2 mps 644 mmHg 78%
    01:00 +19°C° 0.1 mm 2 mps 644 mmHg 80%
    02:00 +18°C° 0 mm 2 mps 644 mmHg 82%
    03:00 +19°C° 0 mm 1 mps 644 mmHg 83%
    04:00 +18°C° 0 mm 1 mps 644 mmHg 84%
    05:00 +18°C° 0 mm 1 mps 644 mmHg 86%
    06:00 +19°C° 0 mm 2 mps 645 mmHg 77%
    07:00 +21°C° 0 mm 2 mps 646 mmHg 69%
    08:00 +24°C° 0 mm 2 mps 647 mmHg 59%
    09:00 +26°C° 0.2 mm 2 mps 647 mmHg 51%
    10:00 +28°C° 0.2 mm 2 mps 647 mmHg 43%
    11:00 +29°C° 0.2 mm 3 mps 647 mmHg 34%
    12:00 +29°C° 0 mm 3 mps 647 mmHg 34%
    13:00 +29°C° 0 mm 3 mps 646 mmHg 34%
    14:00 +29°C° 0 mm 3 mps 646 mmHg 34%
    15:00 +28°C° 0 mm 3 mps 646 mmHg 35%
    16:00 +27°C° 0 mm 2 mps 645 mmHg 37%
    17:00 +27°C° 0 mm 2 mps 645 mmHg 38%
    18:00 +26°C° 0 mm 2 mps 645 mmHg 40%
    19:00 +25°C° 0 mm 2 mps 645 mmHg 41%
    20:00 +24°C° 0 mm 2 mps 646 mmHg 43%
    21:00 +23°C° 0 mm 2 mps 646 mmHg 46%
    22:00 +21°C° 0 mm 2 mps 646 mmHg 49%
    23:00 +20°C° 0 mm 3 mps 646 mmHg 53%

    Tomorrow, 20 November, Monday

    Time Temperature Precipitation Wind Pressure Humidity
    00:00 +19°C° 0 mm 3 mps 646 mmHg 58%
    01:00 +19°C° 0 mm 2 mps 645 mmHg 63%
    02:00 +18°C° 0 mm 2 mps 645 mmHg 68%
    03:00 +18°C° 0 mm 2 mps 645 mmHg 72%
    04:00 +17°C° 0 mm 2 mps 645 mmHg 76%
    05:00 +18°C° 0 mm 1 mps 645 mmHg 80%
    06:00 +19°C° 0 mm 2 mps 645 mmHg 68%
    07:00 +21°C° 0 mm 2 mps 646 mmHg 56%
    08:00 +24°C° 0 mm 2 mps 647 mmHg 44%
    09:00 +26°C° 0 mm 3 mps 647 mmHg 36%
    10:00 +28°C° 0 mm 3 mps 648 mmHg 28%
    11:00 +30°C° 0 mm 3 mps 648 mmHg 19%
    12:00 +30°C° 0 mm 3 mps 647 mmHg 18%
    13:00 +31°C° 0 mm 3 mps 647 mmHg 16%
    14:00 +33°C° 0 mm 3 mps 646 mmHg 15%
    15:00 +31°C° 0 mm 3 mps 646 mmHg 16%
    16:00 +31°C° 0 mm 3 mps 645 mmHg 17%
    17:00 +30°C° 0 mm 4 mps 645 mmHg 18%
    18:00 +28°C° 0 mm 3 mps 645 mmHg 22%
    19:00 +26°C° 0 mm 3 mps 645 mmHg 26%
    20:00 +24°C° 0 mm 3 mps 644 mmHg 30%
    21:00 +22°C° 0 mm 3 mps 645 mmHg 31%
    22:00 +21°C° 0 mm 3 mps 645 mmHg 32%
    23:00 +20°C° 0 mm 3 mps 645 mmHg 33%

    Day after tomorrow, 21 November, Tuesday

    Time Temperature Precipitation Wind Pressure Humidity
    00:00 +20°C° 0 mm 2 mps 644 mmHg 33%
    01:00 +19°C° 0 mm 2 mps 644 mmHg 34%
    02:00 +18°C° 0 mm 2 mps 643 mmHg 35%
    03:00 +19°C° 0 mm 1 mps 643 mmHg 39%
    04:00 +19°C° 0 mm 1 mps 643 mmHg 42%
    05:00 +18°C° 0 mm 1 mps 643 mmHg 45%
    06:00 +21°C° 0 mm 1 mps 644 mmHg 45%
    07:00 +23°C° 0 mm 2 mps 645 mmHg 45%
    08:00 +25°C° 0 mm 2 mps 646 mmHg 45%
    09:00 +28°C° 0 mm 2 mps 646 mmHg 38%
    10:00 +30°C° 0 mm 2 mps 646 mmHg 32%
    11:00 +32°C° 0 mm 1 mps 647 mmHg 25%
    12:00 +34°C° 0 mm 2 mps 646 mmHg 23%
    13:00 +34°C° 0 mm 2 mps 645 mmHg 21%
    14:00 +35°C° 0 mm 2 mps 644 mmHg 20%
    15:00 +34°C° 0 mm 2 mps 644 mmHg 21%
    16:00 +32°C° 0 mm 2 mps 643 mmHg 23%
    17:00 +31°C° 0 mm 1 mps 643 mmHg 24%
    18:00 +29°C° 0 mm 1 mps 643 mmHg 26%
    19:00 +28°C° 0 mm 1 mps 643 mmHg 28%
    20:00 +26°C° 0 mm 1 mps 643 mmHg 30%
    21:00 +26°C° 0 mm 1 mps 643 mmHg 30%
    22:00 +25°C° 0 mm 1 mps 643 mmHg 30%
    23:00 +24°C° 0 mm 1 mps 643 mmHg 30%

    22 November, Wednesday

    Time Temperature Precipitation Wind Pressure Humidity
    00:00 +24°C° 0 mm 1 mps 643 mmHg 30%
    01:00 +23°C° 0 mm 1 mps 642 mmHg 30%
    02:00 +22°C° 0 mm 1 mps 642 mmHg 30%
    03:00 +22°C° 0 mm 1 mps 642 mmHg 33%
    04:00 +21°C° 0 mm 1 mps 642 mmHg 37%
    05:00 +21°C° 0 mm 1 mps 642 mmHg 41%
    06:00 +23°C° 0 mm 2 mps 642 mmHg 40%
    07:00 +25°C° 0 mm 2 mps 643 mmHg 39%
    08:00 +27°C° 0 mm 3 mps 644 mmHg 39%
    09:00 +30°C° 0 mm 3 mps 645 mmHg 33%
    10:00 +32°C° 0 mm 2 mps 645 mmHg 28%
    11:00 +35°C° 0 mm 2 mps 645 mmHg 23%
    12:00 +34°C° 0 mm 2 mps 644 mmHg 23%
    13:00 +32°C° 0 mm 2 mps 644 mmHg 23%
    14:00 +32°C° 0 mm 2 mps 643 mmHg 23%
    15:00 +32°C° 0 mm 2 mps 643 mmHg 22%
    16:00 +32°C° 0 mm 2 mps 643 mmHg 22%
    17:00 +32°C° 0 mm 2 mps 642 mmHg 21%
    18:00 +30°C° 0 mm 2 mps 642 mmHg 24%
    19:00 +28°C° 0 mm 1 mps 642 mmHg 27%
    20:00 +26°C° 0 mm 1 mps 642 mmHg 30%
    21:00 +25°C° 0 mm 1 mps 642 mmHg 30%
    22:00 +24°C° 0 mm 1 mps 642 mmHg 30%
    23:00 +24°C° 0 mm 1 mps 642 mmHg 30%

    23 November, Thursday

    Time Temperature Precipitation Wind Pressure Humidity
    00:00 +23°C° 0 mm 1 mps 642 mmHg 30%
    01:00 +22°C° 0 mm 1 mps 641 mmHg 29%
    02:00 +21°C° 0 mm 2 mps 641 mmHg 29%
    03:00 +21°C° 0 mm 1 mps 641 mmHg 32%
    04:00 +21°C° 0 mm 1 mps 641 mmHg 35%
    05:00 +21°C° 0 mm 1 mps 641 mmHg 38%
    06:00 +23°C° 0 mm 2 mps 643 mmHg 36%
    07:00 +25°C° 0 mm 2 mps 644 mmHg 34%
    08:00 +28°C° 0 mm 3 mps 645 mmHg 32%
    09:00 +29°C° 0 mm 3 mps 645 mmHg 29%
    10:00 +31°C° 0 mm 3 mps 645 mmHg 25%
    11:00 +34°C° 0 mm 4 mps 645 mmHg 21%
    12:00 +34°C° 0 mm 4 mps 645 mmHg 21%
    13:00 +34°C° 0 mm 4 mps 644 mmHg 22%
    14:00 +34°C° 0 mm 4 mps 644 mmHg 22%
    15:00 +33°C° 0 mm 4 mps 643 mmHg 24%
    16:00 +32°C° 0 mm 4 mps 643 mmHg 27%
    17:00 +30°C° 0 mm 5 mps 643 mmHg 30%
    18:00 +29°C° 0.1 mm 5 mps 643 mmHg 36%
    19:00 +27°C° 0.1 mm 5 mps 643 mmHg 43%
    20:00 +25°C° 0.1 mm 5 mps 644 mmHg 49%
    21:00 +25°C° 0 mm 5 mps 644 mmHg 53%
    22:00 +23°C° 0 mm 5 mps 644 mmHg 58%
    23:00 +22°C° 0 mm 5 mps 644 mmHg 62%

    24 November, Friday

    Time Temperature Precipitation Wind Pressure Humidity
    00:00 +21°C° 0 mm 5 mps 644 mmHg 62%
    01:00 +21°C° 0 mm 5 mps 643 mmHg 63%
    02:00 +20°C° 0 mm 5 mps 643 mmHg 63%
    03:00 +20°C° 0 mm 5 mps 643 mmHg 68%
    04:00 +19°C° 0 mm 5 mps 643 mmHg 72%
    05:00 +17°C° 0 mm 5 mps 643 mmHg 77%
    06:00 +19°C° 0 mm 5 mps 644 mmHg 74%
    07:00 +20°C° 0 mm 5 mps 644 mmHg 72%
    08:00 +20°C° 0 mm 5 mps 645 mmHg 69%
    09:00 +22°C° 0 mm 5 mps 645 mmHg 62%
    10:00 +25°C° 0 mm 4 mps 645 mmHg 55%
    11:00 +27°C° 0 mm 4 mps 646 mmHg 48%
    12:00 +28°C° 0 mm 4 mps 645 mmHg 45%
    13:00 +29°C° 0 mm 3 mps 645 mmHg 41%
    14:00 +30°C° 0 mm 3 mps 644 mmHg 38%
    15:00 +29°C° 0 mm 3 mps 644 mmHg 40%
    16:00 +28°C° 0 mm 3 mps 644 mmHg 42%
    17:00 +27°C° 0 mm 4 mps 644 mmHg 45%
    18:00 +26°C° 0 mm 4 mps 644 mmHg 49%
    19:00 +25°C° 0 mm 4 mps 644 mmHg 54%
    20:00 +22°C° 0 mm 4 mps 644 mmHg 58%
    21:00 +22°C° 0 mm 4 mps 644 mmHg 61%
    22:00 +21°C° 0 mm 3 mps 643 mmHg 64%
    23:00 +20°C° 0 mm 3 mps 643 mmHg 67%
    Show more